,,,PA_Meas_PMT16A,,PR_Meas_QMR101_102,,RH_Meas_QMH101,,SR_Meas_QMS101,,TA_Meas_QMH101,,GenWind,,GenWind,
date,time,status,PA,status,PR,status,RH,status,SR,status,TA,status,DirAvg,status,SpdAvg,
2009-11-14, 00:00:04,VALID,1001.89,VALID,0,VALID,94.7888,VALID,0,VALID,24.7937,VALID,284,VALID,0.465234,
2009-11-14, 00:01:04,VALID,1001.9,VALID,0,VALID,94.766,VALID,0,VALID,24.7743,VALID,284,VALID,0.475391,
2009-11-14, 00:02:04,VALID,1001.9,VALID,0,VALID,94.7736,VALID,0,VALID,24.7353,VALID,284,VALID,0.396875,
2009-11-14, 00:03:04,VALID,1001.89,VALID,0,VALID,94.766,VALID,0,VALID,24.7353,VALID,284,VALID,0.282813,
2009-11-14, 00:04:04,VALID,1001.91,VALID,0,VALID,94.7736,VALID,0,VALID,24.7761,VALID,284,VALID,0.303125,
2009-11-14, 00:05:04,VALID,1001.92,VALID,0,VALID,94.7812,VALID,0,VALID,24.7956,VALID,284,VALID,0.185937,
2009-11-14, 00:06:04,VALID,1001.94,VALID,0,VALID,94.8346,VALID,0,VALID,24.854,VALID,284,VALID,0,
2009-11-14, 00:07:04,VALID,1001.95,VALID,0,VALID,94.8651,VALID,0,VALID,24.893,VALID,284,VALID,0.0378906,
2009-11-14, 00:08:04,VALID,1001.97,VALID,0,VALID,94.8804,VALID,0,VALID,24.893,VALID,284,VALID,0.00117188,
2009-11-14, 00:09:04,VALID,1001.98,VALID,0,VALID,94.8728,VALID,0,VALID,24.8327,VALID,284,VALID,0.457422,
2009-11-14, 00:10:04,VALID,1001.95,VALID,0,VALID,94.8575,VALID,0,VALID,24.8327,VALID,284,VALID,0.484766,
2009-11-14, 00:11:04,VALID,1001.93,VALID,0,VALID,94.8575,VALID,0,VALID,24.854,VALID,284,VALID,0.474609,
2009-11-14, 00:12:04,VALID,1001.88,VALID,0,VALID,94.8728,VALID,0,VALID,24.8327,VALID,284,VALID,0.44375,
2009-11-14, 00:13:04,VALID,1001.85,VALID,0,VALID,94.9185,VALID,0,VALID,24.93,VALID,284,VALID,0.353125,
2009-11-14, 00:14:04,VALID,1001.78,VALID,0,VALID,94.9414,VALID,0,VALID,24.9885,VALID,284,VALID,0.346094,
2009-11-14, 00:15:04,VALID,1001.8,VALID,0,VALID,94.9567,VALID,0,VALID,25.006,VALID,284,VALID,0.277344,
2009-11-14, 00:16:04,VALID,1001.77,VALID,0,VALID,94.9567,VALID,0,VALID,25.0644,VALID,284,VALID,0.405078,
2009-11-14, 00:17:04,VALID,1001.78,VALID,0,VALID,94.9567,VALID,0.100563,VALID,25.0255,VALID,284,VALID,0.442969,
2009-11-14, 00:18:04,VALID,1001.76,VALID,0,VALID,94.9643,VALID,0,VALID,24.969,VALID,341,VALID,0.683203,
2009-11-14, 00:19:04,VALID,1001.75,VALID,0,VALID,94.9033,VALID,0,VALID,24.8892,VALID,342,VALID,0.596875,
2009-11-14, 00:20:04,VALID,1001.74,VALID,0,VALID,94.8728,VALID,0,VALID,24.8522,VALID,343,VALID,0.493359,
2009-11-14, 00:21:04,VALID,1001.71,VALID,0,VALID,94.827,VALID,0,VALID,24.7919,VALID,343,VALID,0.587109,
2009-11-14, 00:22:04,VALID,1001.68,VALID,0,VALID,94.7812,VALID,0,VALID,24.7529,VALID,343,VALID,0.440234,
2009-11-14, 00:23:04,VALID,1001.65,VALID,0,VALID,94.766,VALID,0,VALID,24.7353,VALID,343,VALID,0.454297,
2009-11-14, 00:24:04,VALID,1001.64,VALID,0,VALID,94.766,VALID,0,VALID,24.6945,VALID,343,VALID,0.228906,
2009-11-14, 00:25:04,VALID,1001.61,VALID,0,VALID,94.766,VALID,0.100563,VALID,24.7335,VALID,343,VALID,0.421094,
2009-11-14, 00:26:04,VALID,1001.62,VALID,0,VALID,94.7812,VALID,0,VALID,24.7548,VALID,343,VALID,0.0507813,
2009-11-14, 00:27:04,VALID,1001.63,VALID,0,VALID,94.8041,VALID,0.100563,VALID,24.7743,VALID,343,VALID,0.344141,
2009-11-14, 00:28:04,VALID,1001.64,VALID,0,VALID,94.8194,VALID,0,VALID,24.7529,VALID,343,VALID,0.457031,
2009-11-14, 00:29:04,VALID,1001.67,VALID,0,VALID,94.827,VALID,0.100563,VALID,24.7548,VALID,343,VALID,0.376172,
2009-11-14, 00:30:04,VALID,1001.64,VALID,0,VALID,94.827,VALID,0.100563,VALID,24.7335,VALID,343,VALID,0.438281,
2009-11-14, 00:31:04,VALID,1001.64,VALID,0,VALID,94.8346,VALID,0,VALID,24.6945,VALID,343,VALID,0.285937,
2009-11-14, 00:32:04,VALID,1001.66,VALID,0,VALID,94.8346,VALID,0,VALID,24.7353,VALID,343,VALID,0.229297,
2009-11-14, 00:33:04,VALID,1001.61,VALID,0,VALID,94.8346,VALID,0,VALID,24.7353,VALID,343,VALID,0.266016,
2009-11-14, 00:34:04,VALID,1001.58,VALID,0,VALID,94.8575,VALID,0,VALID,24.7335,VALID,343,VALID,0.157031,
2009-11-14, 00:35:04,VALID,1001.59,VALID,0,VALID,94.888,VALID,0.100563,VALID,24.7743,VALID,343,VALID,0,
2009-11-14, 00:36:04,VALID,1001.57,VALID,0,VALID,94.9185,VALID,0,VALID,24.7937,VALID,343,VALID,0,
2009-11-14, 00:37:04,VALID,1001.54,VALID,0,VALID,94.9185,VALID,0,VALID,24.7919,VALID,343,VALID,0,
2009-11-14, 00:38:04,VALID,1001.58,VALID,0,VALID,94.9033,VALID,0,VALID,24.7919,VALID,343,VALID,0,
2009-11-14, 00:39:04,VALID,1001.56,VALID,0,VALID,94.9338,VALID,0,VALID,24.8327,VALID,343,VALID,0,
2009-11-14, 00:40:04,VALID,1001.53,VALID,0,VALID,94.949,VALID,0,VALID,24.8522,VALID,343,VALID,0,
2009-11-14, 00:41:04,VALID,1001.53,VALID,0,VALID,94.9414,VALID,0.100563,VALID,24.8503,VALID,343,VALID,0,
2009-11-14, 00:42:04,VALID,1001.5,VALID,0,VALID,94.9643,VALID,0,VALID,24.8911,VALID,343,VALID,0,
2009-11-14, 00:43:04,VALID,1001.48,VALID,0,VALID,94.9796,VALID,0.100563,VALID,24.8911,VALID,343,VALID,0,
2009-11-14, 00:44:04,VALID,1001.47,VALID,0,VALID,94.9719,VALID,0.100563,VALID,24.8679,VALID,343,VALID,0,
2009-11-14, 00:45:04,VALID,1001.49,VALID,0,VALID,94.9643,VALID,0.100563,VALID,24.8503,VALID,343,VALID,0,
2009-11-14, 00:46:04,VALID,1001.49,VALID,0,VALID,94.9643,VALID,0,VALID,24.8113,VALID,343,VALID,0,
2009-11-14, 00:47:04,VALID,1001.49,VALID,0,VALID,94.9414,VALID,0,VALID,24.7724,VALID,343,VALID,0,
2009-11-14, 00:48:04,VALID,1001.47,VALID,0,VALID,94.9185,VALID,0.100563,VALID,24.7335,VALID,343,VALID,0,
2009-11-14, 00:49:04,VALID,1001.47,VALID,0,VALID,94.9185,VALID,0,VALID,24.7335,VALID,343,VALID,0,
2009-11-14, 00:50:04,VALID,1001.43,VALID,0,VALID,94.9109,VALID,0,VALID,24.7335,VALID,343,VALID,0,
2009-11-14, 00:51:04,VALID,1001.41,VALID,0,VALID,94.9185,VALID,0,VALID,24.714,VALID,343,VALID,0,
2009-11-14, 00:52:04,VALID,1001.42,VALID,0,VALID,94.9109,VALID,0.100563,VALID,24.714,VALID,343,VALID,0,
2009-11-14, 00:53:04,VALID,1001.42,VALID,0,VALID,94.9262,VALID,0,VALID,24.7353,VALID,343,VALID,0,
2009-11-14, 00:54:04,VALID,1001.43,VALID,0,VALID,94.9262,VALID,0,VALID,24.7159,VALID,343,VALID,0,
2009-11-14, 00:55:04,VALID,1001.46,VALID,0,VALID,94.8956,VALID,0,VALID,24.6945,VALID,343,VALID,0.341016,
2009-11-14, 00:56:04,VALID,1001.46,VALID,0,VALID,94.9185,VALID,0,VALID,24.6537,VALID,343,VALID,0.175,
2009-11-14, 00:57:04,VALID,1001.52,VALID,0,VALID,94.9185,VALID,0,VALID,24.6574,VALID,343,VALID,0.223828,
2009-11-14, 00:58:04,VALID,1001.5,VALID,0,VALID,94.8804,VALID,0,VALID,24.6361,VALID,343,VALID,0,
2009-11-14, 00:59:04,VALID,1001.55,VALID,0,VALID,94.9185,VALID,0,VALID,24.6361,VALID,343,VALID,0,
2009-11-14, 01:00:04,VALID,1001.54,VALID,0,VALID,94.9185,VALID,0,VALID,24.6361,VALID,345,VALID,0.255859,
2009-11-14, 01:01:04,VALID,1001.54,VALID,0,VALID,94.9262,VALID,0,VALID,24.6361,VALID,345,VALID,0,
2009-11-14, 01:02:04,VALID,1001.5,VALID,0,VALID,94.9033,VALID,0.100563,VALID,24.6361,VALID,345,VALID,0,
2009-11-14, 01:03:04,VALID,1001.49,VALID,0,VALID,94.9262,VALID,0.100563,VALID,24.675,VALID,345,VALID,0,
2009-11-14, 01:04:04,VALID,1001.47,VALID,0,VALID,94.9262,VALID,0,VALID,24.6556,VALID,345,VALID,0,
2009-11-14, 01:05:04,VALID,1001.44,VALID,0,VALID,94.9338,VALID,0,VALID,24.6556,VALID,345,VALID,0,
2009-11-14, 01:06:04,VALID,1001.38,VALID,0,VALID,94.9567,VALID,0.100563,VALID,24.6556,VALID,345,VALID,0,
2009-11-14, 01:07:04,VALID,1001.36,VALID,0,VALID,94.9719,VALID,0,VALID,24.6945,VALID,345,VALID,0.271484,
2009-11-14, 01:08:04,VALID,1001.32,VALID,0,VALID,94.9796,VALID,0.100563,VALID,24.6945,VALID,345,VALID,0.370313,
2009-11-14, 01:09:04,VALID,1001.36,VALID,0,VALID,94.9872,VALID,0.100563,VALID,24.714,VALID,345,VALID,0.357812,
2009-11-14, 01:10:04,VALID,1001.32,VALID,0,VALID,95.0101,VALID,0.100563,VALID,24.7353,VALID,345,VALID,0.430469,
2009-11-14, 01:11:04,VALID,1001.3,VALID,0,VALID,95.0024,VALID,0.100563,VALID,24.675,VALID,345,VALID,0.288672,
2009-11-14, 01:12:04,VALID,1001.31,VALID,0,VALID,95.0024,VALID,0,VALID,24.6361,VALID,345,VALID,0.496875,
2009-11-14, 01:13:04,VALID,1001.3,VALID,0,VALID,94.9948,VALID,0,VALID,24.599,VALID,345,VALID,0.682031,
2009-11-14, 01:14:04,VALID,1001.31,VALID,0,VALID,94.9719,VALID,0,VALID,24.5796,VALID,345,VALID,0.609766,
2009-11-14, 01:15:04,VALID,1001.27,VALID,0,VALID,94.9567,VALID,0,VALID,24.5601,VALID,345,VALID,0.449609,
2009-11-14, 01:16:04,VALID,1001.25,VALID,0,VALID,94.949,VALID,0,VALID,24.5601,VALID,345,VALID,0.511719,
2009-11-14, 01:17:04,VALID,1001.26,VALID,0,VALID,94.949,VALID,0,VALID,24.5406,VALID,345,VALID,0.413281,
2009-11-14, 01:18:04,VALID,1001.23,VALID,0,VALID,94.9414,VALID,0,VALID,24.5582,VALID,345,VALID,0.428906,
2009-11-14, 01:19:04,VALID,1001.22,VALID,0,VALID,95.0101,VALID,0,VALID,24.638,VALID,345,VALID,0.371875,
2009-11-14, 01:20:04,VALID,1001.21,VALID,0,VALID,95.0406,VALID,0,VALID,24.714,VALID,345,VALID,0.355859,
2009-11-14, 01:21:04,VALID,1001.18,VALID,0,VALID,95.094,VALID,0,VALID,24.7937,VALID,345,VALID,0.426172,
2009-11-14, 01:22:04,VALID,1001.12,VALID,0,VALID,95.094,VALID,0,VALID,24.8327,VALID,345,VALID,0.535547,
2009-11-14, 01:23:04,VALID,1001.13,VALID,0,VALID,95.1169,VALID,0,VALID,24.8522,VALID,346,VALID,0.517187,
2009-11-14, 01:24:04,VALID,1001.12,VALID,0,VALID,95.1169,VALID,0,VALID,24.8327,VALID,346,VALID,0.333984,
2009-11-14, 01:25:04,VALID,1001.09,VALID,0,VALID,95.1093,VALID,0,VALID,24.7743,VALID,346,VALID,0.244531,
2009-11-14, 01:26:04,VALID,1001.07,VALID,0,VALID,95.1016,VALID,0,VALID,24.7353,VALID,346,VALID,0.294922,
2009-11-14, 01:27:04,VALID,1001.08,VALID,0,VALID,95.0787,VALID,0,VALID,24.7372,VALID,346,VALID,0.0972656,
2009-11-14, 01:28:04,VALID,1001.09,VALID,0,VALID,95.0711,VALID,0,VALID,24.675,VALID,346,VALID,0.401953,
2009-11-14, 01:29:04,VALID,1001.06,VALID,0,VALID,95.0558,VALID,0.100563,VALID,24.675,VALID,346,VALID,0.364844,
2009-11-14, 01:30:04,VALID,1001.01,VALID,0,VALID,95.0711,VALID,0,VALID,24.6556,VALID,346,VALID,0.362109,
2009-11-14, 01:31:04,VALID,1001.02,VALID,0,VALID,95.0482,VALID,0,VALID,24.6556,VALID,346,VALID,0.430859,
2009-11-14, 01:32:04,VALID,1001,VALID,0,VALID,95.0635,VALID,0.100563,VALID,24.675,VALID,346,VALID,0.432813,
2009-11-14, 01:33:04,VALID,1001.01,VALID,0,VALID,95.0635,VALID,0.100563,VALID,24.6556,VALID,346,VALID,0.296484,
2009-11-14, 01:34:04,VALID,1001.03,VALID,0,VALID,95.0635,VALID,0,VALID,24.6148,VALID,346,VALID,0.34375,
2009-11-14, 01:35:04,VALID,1001.02,VALID,0,VALID,95.0635,VALID,0,VALID,24.6556,VALID,346,VALID,0.369141,
2009-11-14, 01:36:04,VALID,1001.05,VALID,0,VALID,95.094,VALID,0,VALID,24.6556,VALID,346,VALID,0.350391,
2009-11-14, 01:37:04,VALID,1001.05,VALID,0,VALID,95.0711,VALID,0.100563,VALID,24.675,VALID,346,VALID,0.333594,
2009-11-14, 01:38:04,VALID,1001.02,VALID,0,VALID,95.0864,VALID,0.100563,VALID,24.675,VALID,346,VALID,0.284375,
2009-11-14, 01:39:04,VALID,1000.99,VALID,0,VALID,95.0864,VALID,0,VALID,24.675,VALID,346,VALID,0.376953,
2009-11-14, 01:40:04,VALID,1000.97,VALID,0,VALID,95.1093,VALID,0.100563,VALID,24.675,VALID,346,VALID,0.426172,
2009-11-14, 01:41:04,VALID,1000.94,VALID,0,VALID,95.1093,VALID,0,VALID,24.6361,VALID,346,VALID,0.412891,
2009-11-14, 01:42:04,VALID,1000.95,VALID,0,VALID,95.0864,VALID,0.100563,VALID,24.6166,VALID,346,VALID,0.194141,
2009-11-14, 01:43:04,VALID,1000.93,VALID,0,VALID,95.1093,VALID,0,VALID,24.6361,VALID,346,VALID,0.244141,
2009-11-14, 01:44:04,VALID,1000.94,VALID,0,VALID,95.1016,VALID,0,VALID,24.6361,VALID,346,VALID,0.441797,
2009-11-14, 01:45:04,VALID,1000.91,VALID,0,VALID,95.1169,VALID,0,VALID,24.6556,VALID,346,VALID,0.317578,
2009-11-14, 01:46:04,VALID,1000.89,VALID,0,VALID,95.1169,VALID,0,VALID,24.6361,VALID,346,VALID,0.242188,
2009-11-14, 01:47:04,VALID,1000.92,VALID,0,VALID,95.1169,VALID,0.100563,VALID,24.6361,VALID,346,VALID,0.184766,
2009-11-14, 01:48:04,VALID,1000.93,VALID,0,VALID,95.1169,VALID,0,VALID,24.5953,VALID,346,VALID,0.294922,
2009-11-14, 01:49:04,VALID,1000.92,VALID,0,VALID,95.1169,VALID,0.100563,VALID,24.6166,VALID,346,VALID,0.244531,
2009-11-14, 01:50:04,VALID,1000.9,VALID,0,VALID,95.1169,VALID,0,VALID,24.638,VALID,346,VALID,0,
2009-11-14, 01:51:04,VALID,1000.89,VALID,0,VALID,95.1321,VALID,0,VALID,24.638,VALID,346,VALID,0,
2009-11-14, 01:52:04,VALID,1000.85,VALID,0,VALID,95.1245,VALID,0,VALID,24.5953,VALID,346,VALID,0,
2009-11-14, 01:53:04,VALID,1000.87,VALID,0,VALID,95.1474,VALID,0,VALID,24.6361,VALID,346,VALID,0,
2009-11-14, 01:54:04,VALID,1000.87,VALID,0,VALID,95.1169,VALID,0,VALID,24.675,VALID,346,VALID,0,
2009-11-14, 01:55:04,VALID,1000.87,VALID,0,VALID,95.1321,VALID,0.100563,VALID,24.675,VALID,346,VALID,0,
2009-11-14, 01:56:04,VALID,1000.86,VALID,0,VALID,95.1627,VALID,0.100563,VALID,24.7159,VALID,346,VALID,0,
2009-11-14, 01:57:04,VALID,1000.84,VALID,0,VALID,95.1627,VALID,0,VALID,24.7335,VALID,346,VALID,0,
2009-11-14, 01:58:04,VALID,1000.82,VALID,0,VALID,95.1703,VALID,0,VALID,24.7548,VALID,346,VALID,0,
2009-11-14, 01:59:04,VALID,1000.81,VALID,0,VALID,95.1627,VALID,0,VALID,24.7761,VALID,346,VALID,0,
2009-11-14, 02:00:04,VALID,1000.76,VALID,0,VALID,95.1627,VALID,0,VALID,24.7743,VALID,346,VALID,0,
2009-11-14, 02:01:04,VALID,1000.69,VALID,0,VALID,95.1932,VALID,0,VALID,24.7761,VALID,346,VALID,0,
2009-11-14, 02:02:04,VALID,1000.69,VALID,0,VALID,95.1779,VALID,0,VALID,24.7761,VALID,346,VALID,0,
2009-11-14, 02:03:04,VALID,1000.67,VALID,0,VALID,95.1855,VALID,0,VALID,24.7548,VALID,346,VALID,0,
2009-11-14, 02:04:04,VALID,1000.62,VALID,0,VALID,95.1932,VALID,0,VALID,24.7761,VALID,346,VALID,0.259375,
2009-11-14, 02:05:04,VALID,1000.58,VALID,0,VALID,95.2084,VALID,0,VALID,24.7353,VALID,346,VALID,0.374609,
2009-11-14, 02:06:04,VALID,1000.59,VALID,0,VALID,95.1779,VALID,0,VALID,24.6574,VALID,346,VALID,0.432031,
2009-11-14, 02:07:04,VALID,1000.57,VALID,0,VALID,95.1474,VALID,0,VALID,24.5796,VALID,346,VALID,0.370313,
2009-11-14, 02:08:04,VALID,1000.59,VALID,0,VALID,95.1321,VALID,0,VALID,24.5796,VALID,346,VALID,0.395703,
2009-11-14, 02:09:04,VALID,1000.54,VALID,0,VALID,95.1474,VALID,0,VALID,24.6009,VALID,346,VALID,0.379297,
2009-11-14, 02:10:04,VALID,1000.55,VALID,0,VALID,95.1398,VALID,0,VALID,24.5796,VALID,346,VALID,0.30625,
2009-11-14, 02:11:04,VALID,1000.56,VALID,0,VALID,95.1245,VALID,0,VALID,24.5601,VALID,346,VALID,0.147266,
2009-11-14, 02:12:04,VALID,1000.59,VALID,0,VALID,95.155,VALID,0,VALID,24.5601,VALID,346,VALID,0.00429688,
2009-11-14, 02:13:04,VALID,1000.62,VALID,0,VALID,95.1474,VALID,0,VALID,24.5777,VALID,346,VALID,0,
2009-11-14, 02:14:04,VALID,1000.63,VALID,0,VALID,95.1779,VALID,0,VALID,24.5972,VALID,346,VALID,0,
2009-11-14, 02:15:04,VALID,1000.64,VALID,0,VALID,95.1627,VALID,0,VALID,24.6185,VALID,346,VALID,0.255469,
2009-11-14, 02:16:04,VALID,1000.66,VALID,0,VALID,95.155,VALID,0,VALID,24.6361,VALID,346,VALID,0.54375,
2009-11-14, 02:17:04,VALID,1000.66,VALID,0,VALID,95.1855,VALID,0,VALID,24.6361,VALID,346,VALID,0.597266,
2009-11-14, 02:18:04,VALID,1000.68,VALID,0,VALID,95.2084,VALID,0,VALID,24.6361,VALID,346,VALID,0.601172,
2009-11-14, 02:19:04,VALID,1000.68,VALID,0,VALID,95.1627,VALID,0,VALID,24.6166,VALID,346,VALID,0.615625,
2009-11-14, 02:20:04,VALID,1000.68,VALID,0,VALID,95.1703,VALID,0,VALID,24.5972,VALID,346,VALID,0.444531,
2009-11-14, 02:21:04,VALID,1000.65,VALID,0,VALID,95.1627,VALID,0,VALID,24.5777,VALID,346,VALID,0.363281,
2009-11-14, 02:22:04,VALID,1000.64,VALID,0,VALID,95.1779,VALID,0,VALID,24.5777,VALID,346,VALID,0.567969,
2009-11-14, 02:23:04,VALID,1000.61,VALID,0,VALID,95.2008,VALID,0,VALID,24.6166,VALID,346,VALID,0.342969,
2009-11-14, 02:24:04,VALID,1000.62,VALID,0,VALID,95.2008,VALID,0,VALID,24.6166,VALID,346,VALID,0.166016,
2009-11-14, 02:25:04,VALID,1000.55,VALID,0,VALID,95.1855,VALID,0,VALID,24.675,VALID,346,VALID,0.171875,
2009-11-14, 02:26:04,VALID,1000.52,VALID,0,VALID,95.2084,VALID,0,VALID,24.6556,VALID,346,VALID,0,
2009-11-14, 02:27:04,VALID,1000.53,VALID,0,VALID,95.2313,VALID,0,VALID,24.6361,VALID,346,VALID,0,
2009-11-14, 02:28:04,VALID,1000.49,VALID,0,VALID,95.2161,VALID,0.100563,VALID,24.6166,VALID,346,VALID,0,
2009-11-14, 02:29:04,VALID,1000.51,VALID,0,VALID,95.2161,VALID,0.100563,VALID,24.5972,VALID,346,VALID,0,
2009-11-14, 02:30:04,VALID,1000.49,VALID,0,VALID,95.2008,VALID,0,VALID,24.599,VALID,346,VALID,0.535937,
2009-11-14, 02:31:04,VALID,1000.5,VALID,0,VALID,95.2084,VALID,0.100563,VALID,24.5972,VALID,357,VALID,0.625,
2009-11-14, 02:32:04,VALID,1000.47,VALID,0,VALID,95.2161,VALID,0.100563,VALID,24.5972,VALID,357,VALID,0.394922,
2009-11-14, 02:33:04,VALID,1000.46,VALID,0,VALID,95.2161,VALID,0.100563,VALID,24.5972,VALID,357,VALID,0.648438,
2009-11-14, 02:34:04,VALID,1000.45,VALID,0,VALID,95.2237,VALID,0,VALID,24.599,VALID,357,VALID,0.432422,
2009-11-14, 02:35:04,VALID,1000.41,VALID,0,VALID,95.2161,VALID,0,VALID,24.6361,VALID,357,VALID,0.362891,
2009-11-14, 02:36:04,VALID,1000.39,VALID,0,VALID,95.2389,VALID,0,VALID,24.6361,VALID,357,VALID,0.33125,
2009-11-14, 02:37:04,VALID,1000.39,VALID,0,VALID,95.2237,VALID,0,VALID,24.6769,VALID,357,VALID,0.376563,
2009-11-14, 02:38:04,VALID,1000.39,VALID,0,VALID,95.2389,VALID,0,VALID,24.6574,VALID,357,VALID,0.369141,
2009-11-14, 02:39:04,VALID,1000.35,VALID,0,VALID,95.2389,VALID,0,VALID,24.6166,VALID,357,VALID,0.357812,
2009-11-14, 02:40:04,VALID,1000.35,VALID,0,VALID,95.2466,VALID,0.100563,VALID,24.5777,VALID,357,VALID,0.526953,
2009-11-14, 02:41:04,VALID,1000.33,VALID,0,VALID,95.2008,VALID,0.100563,VALID,24.5796,VALID,357,VALID,0.378516,
2009-11-14, 02:42:04,VALID,1000.29,VALID,0,VALID,95.2237,VALID,0,VALID,24.5193,VALID,357,VALID,0.290234,
2009-11-14, 02:43:04,VALID,1000.28,VALID,0,VALID,95.2161,VALID,0,VALID,24.4804,VALID,357,VALID,0.366406,
2009-11-14, 02:44:04,VALID,1000.26,VALID,0,VALID,95.2008,VALID,0,VALID,24.4804,VALID,357,VALID,0.199219,
2009-11-14, 02:45:04,VALID,1000.26,VALID,0,VALID,95.2008,VALID,0,VALID,24.4822,VALID,357,VALID,0.399219,
2009-11-14, 02:46:04,VALID,1000.25,VALID,0,VALID,95.2008,VALID,0,VALID,24.4396,VALID,357,VALID,0.397266,
2009-11-14, 02:47:04,VALID,1000.29,VALID,0,VALID,95.2084,VALID,0.100563,VALID,24.4609,VALID,357,VALID,0.494531,
2009-11-14, 02:48:04,VALID,1000.29,VALID,0,VALID,95.2161,VALID,0.100563,VALID,24.4785,VALID,357,VALID,0.272266,
2009-11-14, 02:49:04,VALID,1000.27,VALID,0,VALID,95.2161,VALID,0,VALID,24.5017,VALID,357,VALID,0.127734,
2009-11-14, 02:50:04,VALID,1000.23,VALID,0,VALID,95.2237,VALID,0,VALID,24.5017,VALID,357,VALID,0.0328125,
2009-11-14, 02:51:04,VALID,1000.22,VALID,0,VALID,95.2313,VALID,0,VALID,24.5017,VALID,357,VALID,0,
2009-11-14, 02:52:04,VALID,1000.21,VALID,0,VALID,95.2161,VALID,0,VALID,24.5017,VALID,357,VALID,0,
2009-11-14, 02:53:04,VALID,1000.21,VALID,0,VALID,95.2161,VALID,0,VALID,24.4804,VALID,357,VALID,0,
2009-11-14, 02:54:04,VALID,1000.21,VALID,0,VALID,95.2084,VALID,0,VALID,24.4804,VALID,357,VALID,0,
2009-11-14, 02:55:04,VALID,1000.21,VALID,0,VALID,95.2084,VALID,0,VALID,24.4998,VALID,357,VALID,0,
2009-11-14, 02:56:04,VALID,1000.18,VALID,0,VALID,95.2161,VALID,0.100563,VALID,24.5388,VALID,357,VALID,0,
2009-11-14, 02:57:04,VALID,1000.2,VALID,0,VALID,95.2313,VALID,0.100563,VALID,24.5777,VALID,357,VALID,0,
2009-11-14, 02:58:04,VALID,1000.22,VALID,0,VALID,95.2389,VALID,0.100563,VALID,24.5972,VALID,357,VALID,0,
2009-11-14, 02:59:04,VALID,1000.22,VALID,0,VALID,95.2389,VALID,0.100563,VALID,24.5777,VALID,357,VALID,0.433594,
2009-11-14, 03:00:04,VALID,1000.23,VALID,0,VALID,95.2389,VALID,0.100563,VALID,24.5406,VALID,357,VALID,0.0121094,
2009-11-14, 03:01:04,VALID,1000.22,VALID,0,VALID,95.2389,VALID,0,VALID,24.5601,VALID,357,VALID,0,
2009-11-14, 03:02:04,VALID,1000.23,VALID,0,VALID,95.2618,VALID,0,VALID,24.5388,VALID,298,VALID,0.575,
2009-11-14, 03:03:04,VALID,1000.23,VALID,0,VALID,95.2542,VALID,0,VALID,24.6574,VALID,271,VALID,0.452734,
2009-11-14, 03:04:04,VALID,1000.27,VALID,0,VALID,95.3,VALID,0,VALID,24.6945,VALID,271,VALID,0.430078,
2009-11-14, 03:05:04,VALID,1000.27,VALID,0,VALID,95.2847,VALID,0,VALID,24.7159,VALID,271,VALID,0,
2009-11-14, 03:06:04,VALID,1000.28,VALID,0,VALID,95.2923,VALID,0.100563,VALID,24.6964,VALID,271,VALID,0,
2009-11-14, 03:07:04,VALID,1000.33,VALID,0,VALID,95.2771,VALID,0.100563,VALID,24.6361,VALID,271,VALID,0.000390625,
2009-11-14, 03:08:04,VALID,1000.33,VALID,0,VALID,95.2847,VALID,0.100563,VALID,24.5972,VALID,271,VALID,0.169922,
2009-11-14, 03:09:04,VALID,1000.36,VALID,0,VALID,95.2695,VALID,0,VALID,24.5777,VALID,271,VALID,0.199609,
2009-11-14, 03:10:04,VALID,1000.38,VALID,0,VALID,95.2542,VALID,0,VALID,24.5388,VALID,271,VALID,0.155859,
2009-11-14, 03:11:04,VALID,1000.4,VALID,0,VALID,95.2313,VALID,0.100563,VALID,24.4998,VALID,271,VALID,0.0121094,
2009-11-14, 03:12:04,VALID,1000.43,VALID,0,VALID,95.2313,VALID,0,VALID,24.4609,VALID,271,VALID,0,
2009-11-14, 03:13:04,VALID,1000.43,VALID,0,VALID,95.2313,VALID,0,VALID,24.4822,VALID,271,VALID,0.0246094,
2009-11-14, 03:14:04,VALID,1000.43,VALID,0,VALID,95.2084,VALID,0,VALID,24.4414,VALID,271,VALID,0.0816406,
2009-11-14, 03:15:04,VALID,1000.43,VALID,0,VALID,95.2237,VALID,0,VALID,24.4609,VALID,271,VALID,0,
2009-11-14, 03:16:04,VALID,1000.45,VALID,0,VALID,95.2084,VALID,0,VALID,24.4609,VALID,271,VALID,0,
2009-11-14, 03:17:04,VALID,1000.46,VALID,0,VALID,95.2008,VALID,0,VALID,24.4414,VALID,271,VALID,0.251953,
2009-11-14, 03:18:04,VALID,1000.44,VALID,0,VALID,95.2161,VALID,0.100563,VALID,24.422,VALID,271,VALID,0.137891,
2009-11-14, 03:19:04,VALID,1000.45,VALID,0,VALID,95.1932,VALID,0,VALID,24.422,VALID,280,VALID,0.491016,
2009-11-14, 03:20:04,VALID,1000.45,VALID,0,VALID,95.1932,VALID,0,VALID,24.4025,VALID,8,VALID,0.666016,
2009-11-14, 03:21:04,VALID,1000.46,VALID,0,VALID,95.1779,VALID,0,VALID,24.383,VALID,7,VALID,0.461719,
2009-11-14, 03:22:04,VALID,1000.45,VALID,0,VALID,95.1932,VALID,0,VALID,24.3849,VALID,7,VALID,0.589453,
2009-11-14, 03:23:04,VALID,1000.41,VALID,0,VALID,95.1779,VALID,0,VALID,24.3033,VALID,7,VALID,0.280469,
2009-11-14, 03:24:04,VALID,1000.4,VALID,0,VALID,95.2008,VALID,0,VALID,24.3052,VALID,7,VALID,0.302734,
2009-11-14, 03:25:04,VALID,1000.4,VALID,0,VALID,95.1855,VALID,0.100563,VALID,24.2857,VALID,7,VALID,0.11875,
2009-11-14, 03:26:04,VALID,1000.39,VALID,0,VALID,95.1779,VALID,0,VALID,24.3265,VALID,8,VALID,0,
2009-11-14, 03:27:04,VALID,1000.39,VALID,0,VALID,95.1703,VALID,0,VALID,24.2857,VALID,7,VALID,0,
2009-11-14, 03:28:04,VALID,1000.41,VALID,0,VALID,95.1779,VALID,0.100563,VALID,24.2857,VALID,7,VALID,0,
2009-11-14, 03:29:04,VALID,1000.38,VALID,0,VALID,95.1627,VALID,0,VALID,24.3052,VALID,8,VALID,0,
2009-11-14, 03:30:04,VALID,1000.42,VALID,0,VALID,95.2084,VALID,0,VALID,24.3052,VALID,8,VALID,0,
2009-11-14, 03:31:04,VALID,1000.41,VALID,0,VALID,95.2084,VALID,0,VALID,24.383,VALID,7,VALID,0.253125,
2009-11-14, 03:32:04,VALID,1000.38,VALID,0,VALID,95.2161,VALID,0,VALID,24.422,VALID,8,VALID,0,
2009-11-14, 03:33:04,VALID,1000.39,VALID,0,VALID,95.2466,VALID,0,VALID,24.422,VALID,8,VALID,0,
2009-11-14, 03:34:04,VALID,1000.38,VALID,0,VALID,95.2313,VALID,0,VALID,24.422,VALID,8,VALID,0.296094,
2009-11-14, 03:35:04,VALID,1000.37,VALID,0,VALID,95.2542,VALID,0,VALID,24.4025,VALID,8,VALID,0.864844,
2009-11-14, 03:36:04,VALID,1000.39,VALID,0,VALID,95.2313,VALID,0,VALID,24.3441,VALID,8,VALID,0.805859,
2009-11-14, 03:37:04,VALID,1000.41,VALID,0,VALID,95.2161,VALID,0,VALID,24.3052,VALID,8,VALID,0.791406,
2009-11-14, 03:38:04,VALID,1000.43,VALID,0,VALID,95.2389,VALID,0,VALID,24.3052,VALID,9,VALID,0.560156,
2009-11-14, 03:39:04,VALID,1000.41,VALID,0,VALID,95.2161,VALID,0,VALID,24.2875,VALID,9,VALID,0.330859,
2009-11-14, 03:40:04,VALID,1000.41,VALID,0,VALID,95.2237,VALID,0.100563,VALID,24.2681,VALID,9,VALID,0.119922,
2009-11-14, 03:41:04,VALID,1000.36,VALID,0,VALID,95.2466,VALID,0,VALID,24.2468,VALID,9,VALID,0,
2009-11-14, 03:42:04,VALID,1000.35,VALID,0,VALID,95.2466,VALID,0,VALID,24.2468,VALID,9,VALID,0,
2009-11-14, 03:43:04,VALID,1000.36,VALID,0,VALID,95.2389,VALID,0,VALID,24.2662,VALID,9,VALID,0,
2009-11-14, 03:44:04,VALID,1000.37,VALID,0,VALID,95.2313,VALID,0.100563,VALID,24.2681,VALID,9,VALID,0,
2009-11-14, 03:45:04,VALID,1000.36,VALID,0,VALID,95.2618,VALID,0.100563,VALID,24.2468,VALID,9,VALID,0,
2009-11-14, 03:46:04,VALID,1000.37,VALID,0,VALID,95.2466,VALID,0,VALID,24.2468,VALID,9,VALID,0.249609,